Regional Weather Roundup
Issued by NWS Kansas City/Pleasant Hill, MO

Home | Current Version | Previous Version | Text Only | Print | Product List | Glossary On
Versions: 1 2 3 4 5 6 7 8 9 10 11 12 13 14 15 16 17 18 19 20 21 22 23 24 25 26 27 28 29 30 31 32 33 34 35 36 37 38 39 40 41 42 43 44 45 46 47 48 49
000
ASUS43 KEAX 040210
RWREAX

WEATHER ROUNDUP FOR EASTERN KANSAS AND NORTHWEST MISSOURI
NATIONAL WEATHER SERVICE KANSAS CITY/PLEASANT HILL MO
900 PM CDT THU SEP 03 2015

KSZ040-057-103>105-MOZ028-029-037-043-040300-
...KANSAS CITY METROPOLITAN AREA...

CITY           SKY/WX    TMP DP  RH WIND       PRES   REMARKS
K.C. INTL      CLEAR     76  67  73 S8        29.90R
K.C. DOWNTOWN  CLEAR     83  67  58 S8        29.89R
LEES SUMMIT    CLEAR     81  66  60 S6        29.92R
OLATHE - IXD   CLEAR     77  69  76 SE6       29.91R
OLATHE - OJC   CLEAR     76  68  76 S7        29.90R
LAWRENCE       PTCLDY    75  67  76 SE5       29.89R

$$

MOZ001>008-011>017-020>025-030>033-038>040-044>046-053-054-040300-
...NORTHERN AND CENTRAL MISSOURI...

CITY           SKY/WX    TMP DP  RH WIND       PRES   REMARKS
ST. JOSEPH     CLEAR     79  69  71 S8        29.87R
MOSBY          CLEAR     79  68  69 CALM      29.89R
WARRENSBURG    CLEAR     79  68  69 SE3       29.91R
WHITEMAN AFB   CLEAR     77  68  73 S5        29.91R
CLINTON        CLEAR     79  72  78 CALM      29.92R
SEDALIA        CLEAR     79  68  69 S5        29.93R
WARSAW         NOT AVBL
CHILLICOTHE      N/A     79  70  74 S3        29.91R
KIRKSVILLE     CLEAR     77  67  71 S6        29.93R

$$

MOZ041-047>049-056>058-063>065-088>090-097-040300-
...EASTERN AND SOUTHERN MISSOURI...

CITY           SKY/WX    TMP DP  RH WIND       PRES   REMARKS
ST. LOUIS INTL PTCLDY    86  66  51 SW3       29.94R
SPIRIT OF STL  CLEAR     76  74  93 CALM      29.93R
COLUMBIA       CLEAR     79  71  76 SE7       29.94R
JEFFERSON CITY CLEAR     80  70  71 E3        29.91R
ROLLA          CLEAR     76  67  73 S6        29.95R
OSAGE BEACH    CLEAR     79  66  65 SE5       29.94S
SPRINGFIELD    PTCLDY    78  68  71 SE5       29.95R
BRANSON        PTCLDY    75  68  78 CALM      29.97R
JOPLIN         CLEAR     77  70  79 SE3       29.92R
WEST PLAINS    CLEAR     74  69  85 CALM      29.99R

$$

IAZ060-094-KSZ022-034>040-054-083-096-NEZ052-066-093-040300-
...KANSAS...SOUTHEAST NEBRASKA AND IOWA...

CITY           SKY/WX    TMP DP  RH WIND       PRES   REMARKS
TOPEKA         PTCLDY    80  67  64 SE8       29.88R
MANHATTAN      MOCLDY    81  65  58 S5        29.84R
EMPORIA        FAIR      79  67  66 SE10      29.88R
CHANUTE        PTCLDY    77  69  76 SE6       29.90R
WICHITA        MOCLDY    82  64  54 SE13      29.85R
OMAHA          PTCLDY    83  71  67 SE14      29.82R
LINCOLN        PTCLDY    83  67  58 S10       29.82R
FALLS CITY     CLEAR     78  69  73 S9        29.85R
LAMONI         CLEAR     79  69  71 S6        29.90R
DES MOINES     PTCLDY    83  71  67 SE8       29.87R

$$



USA.gov is the U.S. government's official web portal to all federal, state and local government web resources and services.